Content
SEND FEEDBACK

Daily
Averages
Monthly
Summary
United States of America

WILLOW SPRINGS, MISSOURI


Home > North America > United States > Missouri
Elevation: 1274 feet     Latitude: 36 58N     Longitude: 091 58W

WEATHER
 
SELECT A DAY
Number of Records: 190,278;   Date Range: 8/15/96 - 7/26/14
 
SHARE

PRINT THIS DATA

[ ← Previous Day ]
WEATHER ALMANAC - FEBRUARY 13, 2013
[ Next Day → ]
[ °C ]   °F
Weather ElementAverageHighLow
Temperature36.7 °F51.1 °F (3:53 pm)33.1 °F (12:53 am)
Dewpoint30.5 °F35.1 °F (10:53 am)26.1 °F (3:53 pm)
Humidity80.3 %96 % (1:53 am)38 % (3:53 pm)
Barometer29.93 in29.98 in (8:53 am)29.88 in (3:06 am)
Wind Speed6.3 mph15 mph (3:53 pm)
Wind Gust23 mph (1:53 pm)
Weather ElementAverage
Visibility7.1 mi
Wind DirectionSSW (202.6 °)

Weather ElementTotal
Precipitation0.28 in
Heating Degree Days22.9 (Base 65)
Averaged from 43 records on February 13, 2013
WEATHER CONDITIONS BREAKOUT
WIND DIRECTION BREAKOUT
WEATHER BY HOUR - FEBRUARY 13, 2013
[ °C ]   °F
Local TimeTemperatureDewpointHumidityBarometerVisibilityWind DirectionWind SpeedGust SpeedPrecipitationEventsConditions
12:28 AM35.6 °F32.0 °F87 %29.93 in5.0 miNorth (360°)4.6 mph0.02 inSnowLight Snow
12:45 AM33.8 °F32.0 °F93 %29.93 in2.5 miNNE (20°)5.8 mph0.03 inSnowLight Snow
12:53 AM33.1 °F30.9 °F92 %29.94 in2.0 miNNE (20°)6.9 mph0.04 inSnowLight Snow
1:15 AM33.8 °F30.2 °F87 %29.92 in3.0 miNNE (20°)4.6 mph0.01 inSnowLight Snow
1:40 AM33.8 °F30.2 °F87 %29.91 in4.0 miNNE (20°)6.9 mph0.02 inSnowLight Snow
1:53 AM33.1 °F32.0 °F96 %29.92 in4.0 miNNE (20°)6.9 mph0.02 inSnowLight Snow
2:10 AM33.8 °F30.2 °F87 %29.91 in2.5 miNNE (20°)5.8 mph0.01 inSnowLight Snow
2:20 AM33.8 °F30.2 °F87 %29.90 in3.0 miNNE (20°)6.9 mph0.01 inSnowLight Snow
2:31 AM33.8 °F30.2 °F87 %29.90 in2.5 miNNE (30°)5.8 mph0.02 inSnowLight Snow
2:53 AM33.1 °F30.9 °F92 %29.90 in2.5 miNNE (30°)6.9 mph0.02 inSnowLight Snow
3:06 AM33.8 °F30.2 °F87 %29.88 in3.0 miNNE (20°)8.1 mph0.01 inSnowLight Snow
3:53 AM33.1 °F30.9 °F92 %29.90 in7.0 miNorth (360°)4.6 mph0.02 inOvercast
4:32 AM33.8 °F32.0 °F93 %29.88 in6.0 miNNW (330°)3.5 mph0.00 inSnowLight Snow
4:53 AM33.1 °F30.9 °F92 %29.91 in5.0 miNW (310°)5.8 mph0.01 inSnowLight Snow
5:16 AM33.8 °F30.2 °F87 %29.90 in3.0 miNW (310°)5.8 mph0.00 inSnowLight Snow
5:36 AM33.8 °F30.2 °F87 %29.90 in5.0 miWNW (300°)3.5 mph0.01 inOvercast
5:50 AM33.8 °F30.2 °F87 %29.90 in9.0 miWNW (290°)4.6 mph0.01 inOvercast
5:53 AM33.1 °F30.9 °F92 %29.92 in10.0 miWNW (290°)4.6 mph0.01 inOvercast
6:10 AM33.8 °F30.2 °F87 %29.91 in8.0 miWNW (290°)4.6 mph0.00 inSnowLight Snow
6:24 AM33.8 °F30.2 °F87 %29.91 in4.0 miWest (280°)3.5 mph0.00 inSnowLight Snow
6:31 AM33.8 °F30.2 °F87 %29.91 in4.0 miCalm0.00 inSnowLight Snow
6:53 AM33.1 °F30.9 °F92 %29.94 in8.0 miWest (270°)3.5 mph0.00 inOvercast
7:53 AM33.1 °F30.9 °F92 %29.97 in5.0 miWNW (300°)8.1 mph0.01 inSnowLight Snow
8:25 AM33.8 °F32.0 °F93 %29.95 in10.0 miCalm0.00 inOvercast
8:53 AM34.0 °F32.0 °F92 %29.98 in10.0 miWest (260°)4.6 mph0.00 inOvercast
9:00 AM33.8 °F32.0 °F93 %29.96 in10.0 miWest (270°)4.6 mphOvercast
9:14 AM33.8 °F32.0 °F93 %29.96 in10.0 miWest (260°)4.6 mphOvercast
9:48 AM35.6 °F33.8 °F93 %29.96 in10.0 miWest (270°)6.9 mphMostly Cloudy
9:53 AM36.0 °F33.1 °F89 %29.98 in10.0 miWest (260°)9.2 mphScattered Clouds
10:53 AM42.1 °F35.1 °F76 %29.97 in10.0 miWSW (250°)10.4 mphPartly Cloudy
11:53 AM44.1 °F34.0 °F68 %29.96 in10.0 miWest (270°)11.5 mphPartly Cloudy
12:53 PM46.0 °F33.1 °F61 %29.93 in10.0 miWSW (240°)11.5 mph17.3 mphPartly Cloudy
1:53 PM48.9 °F30.9 °F50 %29.92 in10.0 miWSW (250°)12.7 mph23.0 mphClear
2:53 PM50.0 °F28.9 °F44 %29.90 in10.0 miSW (230°)11.5 mphScattered Clouds
3:53 PM51.1 °F26.1 °F38 %29.91 in10.0 miWNW (300°)15.0 mphClear
4:53 PM48.0 °F27.0 °F44 %29.90 in10.0 miWest (270°)10.4 mphClear
5:53 PM43.0 °F27.0 °F53 %29.92 in10.0 miWSW (250°)4.6 mphClear
6:53 PM39.9 °F27.0 °F60 %29.93 in10.0 miWSW (250°)4.6 mphClear
7:53 PM37.9 °F28.0 °F68 %29.93 in10.0 miWSW (240°)4.6 mphClear
8:53 PM37.9 °F28.0 °F68 %29.94 in8.0 miWSW (250°)4.6 mphClear
9:53 PM37.0 °F28.0 °F70 %29.94 in10.0 miSW (230°)4.6 mphClear
10:53 PM36.0 °F28.0 °F73 %29.95 in10.0 miSW (230°)5.8 mphClear
11:53 PM37.0 °F28.0 °F70 %29.94 in10.0 miSW (220°)6.9 mphClear
Hourly data recorded from KUNO, located miles away from Willow Springs, Missouri







STORIES FROM OUR PARTNERS